sat.trackr.live / text

‹ back to catalog

ONEWEB-0617

NORAD 55158 · 2023-004U

PAYLOAD ACTIVE UNKNOWN

§ Identity

Operator
Country
UK
Launch date
2023-01-10
Launch site
AFETR
Launch vehicle
Mass (kg)
RCS (m²)

Purposes: comms

External: N2YO · Heavens-Above · Gunter

§ Orbital elements

Epoch: 2026-09-19T23:31:29.536608Z

Period
109.81 min
Inclination
87.8965°
Eccentricity
0.0001867
Mean motion
13.11414563 rev/d
Perigee alt
1,216.3 km
Apogee alt
1,219.1 km
Semi-major
7,595.8 km
B*
2.2309e-5
RAAN
2.2274°
Arg perigee
114.2537°
Mean anomaly
245.8786°
Rev number
17,828

§ Raw data

ONEWEB-06171 55158U 23004U   26262.98020297  .00000021  00000+0  22309-4 0  99902 55158  87.8965   2.2274 0001867 114.2537 245.8786 13.11414563178286

JSON: /api/v1/satellites/55158 · /tle

For live sub-satellite position, see the globe view (requires WebGL).

§ Visibility from observer

Set your observer location to see the next 7 days of passes ≥ 10°. The values pass through the URL so the page stays shareable.

No JS? Fill the form by hand. The geolocation button needs JavaScript.